Location: Saratoga Springs
(43.0831°N, 73.7850°W)
Time: 16:41:19
(UTC-04:00)

Tiros 1 - Pass Details

Date: 16 April 2024
Orbit: 624 x 657 km, 48.4° (Epoch: 28 May)

Event Time Altitude Azimuth Distance (km) Brightness Sun altitude
Rises 07:52:44 0° 295° (WNW) 2,904 9.9 17.6°
Reaches altitude 10° 07:55:03 10° 293° (WNW) 1,995 9.2 18.1°
Maximum altitude 07:59:36 69° 211° (SSW) 669 7.4 18.9°
Drops below altitude 10° 08:04:09 10° 128° (SE) 1,993 10.8 19.7°
Sets 08:06:28 0° 126° (SE) 2,901 11.5 20.1°
